Terug naar catalogus

STARLINK-3671

ActiefCommunicatieVLEO
NORAD 51972·PAYLOAD·🇺🇸 United States

Gelanceerd Mar 9, 2022 vanaf Cape Canaveral Space Force Station

Loading…

Volgende Passages (komende 24 uur)

TLE

VersSource: CelesTrak SupGP

Epoch: Sep 14, 2026, 20:06 UTC

1 51972C 22025S   26257.83798611  .00042996  00000+0  13824-2 0  2576
2 51972  53.1580 237.1654 0001259  75.8756  89.3006 15.31686786    19

Volg STARLINK-3671 in realtime met AllMySat

Download on the App Store